sat.trackr.live / text

‹ back to catalog

COSMOS 2588

NORAD 64095 · 2025-109A

PAYLOAD ACTIVE UNKNOWN

§ Identity

Operator
Country
CIS
Launch date
2025-05-23
Launch site
PLMSC
Launch vehicle
Mass (kg)
RCS (m²)

External: N2YO · Heavens-Above · Gunter

§ Orbital elements

Epoch: 2026-05-24T17:08:56.224896Z

Period
94.20 min
Inclination
72.9716°
Eccentricity
0.0010379
Mean motion
15.28595255 rev/d
Perigee alt
472.9 km
Apogee alt
487.1 km
Semi-major
6,858.1 km
B*
3.0605e-4
RAAN
261.7988°
Arg perigee
161.8430°
Mean anomaly
198.3138°
Rev number
5,602

§ Raw data

COSMOS 25881 64095U 25109A   26144.71453964  .00008471  00000+0  30605-3 0  99932 64095  72.9716 261.7988 0010379 161.8430 198.3138 15.28595255 56025

JSON: /api/v1/satellites/64095 · /tle

For live sub-satellite position, see the globe view (requires WebGL).

§ Visibility from observer

Set your observer location to see the next 7 days of passes ≥ 10°. The values pass through the URL so the page stays shareable.

No JS? Fill the form by hand. The geolocation button needs JavaScript.

§ Radio — SatNOGS DB

ModeDescriptionDownlinkUplink
FM S-band telemetry 2.284 GHz

1 transmitter · refreshed weekly from db.satnogs.org